CW8164 Weather Reports


time (UTC)temp
C
wind
direction
speed
KPH
gust
KPH
rain 1hr
cm
rain 24hr
cm
rain mn
cm
humidity
%
barometer
mb
20260507094903 11 267 0.0 3.2 0.00 0.00 0.00 81 1021.0
20260507094402 11 147 1.6 3.2 0.00 0.00 0.00 80 1021.0
20260507093903 11 253 1.6 3.2 0.00 0.00 0.00 81 1021.0
20260507092902 11 250 0.0 4.8 0.00 0.00 0.00 81 1021.1
20260507092403 11 242 1.6 4.8 0.00 0.00 0.00 80 1021.1
20260507091903 11 262 1.6 4.8 0.00 0.00 0.00 82 1021.2
20260507091403 11 259 0.0 3.2 0.00 0.00 0.00 81 1021.2
20260507090904 11 254 0.0 4.8 0.00 0.00 0.00 82 1021.2
20260507090403 11 248 0.0 4.8 0.00 0.00 0.00 82 1021.2
20260507085402 11 250 0.0 3.2 0.00 0.00 0.00 82 1021.2
20260507084903 11 259 0.0 4.8 0.00 0.00 0.00 81 1021.1
20260507084403 11 307 1.6 4.8 0.00 0.00 0.00 81 1021.1
20260507083902 11 289 0.0 3.2 0.00 0.00 0.00 81 1021.1
20260507083403 11 222 0.0 3.2 0.00 0.00 0.00 81 1021.1
20260507082903 11 294 0.0 0.0 0.00 0.00 0.00 82 1021.2
20260507082402 11 328 0.0 3.2 0.00 0.00 0.00 81 1021.2
20260507081903 11 313 0.0 3.2 0.00 0.00 0.00 81 1021.2
20260507081402 11 290 1.6 3.2 0.00 0.00 0.00 81 1021.1
20260507080903 11 230 0.0 4.8 0.00 0.00 0.00 82 1021.1
20260507075903 11 262 1.6 3.2 0.00 0.00 0.00 81 1021.1
20260507075403 11 239 0.0 3.2 0.00 0.00 0.00 81 1021.1
20260507074902 11 172 1.6 3.2 0.00 0.00 0.00 81 1021.1
20260507074404 11 316 1.6 8.0 0.00 0.00 0.00 81 1021.2
20260507073902 11 262 1.6 8.0 0.00 0.00 0.00 81 1021.1
20260507073403 11 173 0.0 3.2 0.00 0.00 0.00 82 1021.1
20260507072403 11 283 0.0 4.8 0.00 0.00 0.00 83 1021.0
20260507071902 11 333 0.0 4.8 0.00 0.00 0.00 83 1021.0
20260507071402 11 241 0.0 3.2 0.00 0.00 0.00 83 1021.0
20260507070403 11 303 1.6 3.2 0.00 0.00 0.00 83 1021.0
20260507065902 10 220 0.0 3.2 0.00 0.00 0.00 83 1021.0
20260507065403 11 238 0.0 0.0 0.00 0.00 0.00 83 1021.0
20260507064903 11 238 0.0 0.0 0.00 0.00 0.00 83 1021.0
20260507064402 11 238 0.0 0.0 0.00 0.00 0.00 82 1021.0
20260507063902 11 238 0.0 3.2 0.00 0.00 0.00 82 1021.0
20260507063403 11 238 0.0 3.2 0.00 0.00 0.00 82 1020.9
20260507062903 11 228 0.0 3.2 0.00 0.00 0.00 82 1021.0
20260507061902 11 209 0.0 4.8 0.00 0.00 0.00 81 1021.0
20260507060902 11 273 0.0 3.2 0.00 0.00 0.00 80 1021.0
20260507055903 11 204 0.0 3.2 0.00 0.00 0.00 80 1021.1
20260507054903 12 281 0.0 3.2 0.00 0.00 0.00 79 1021.1
20260507053404 12 204 1.6 4.8 0.00 0.00 0.00 79 1021.0
20260507052902 12 276 1.6 4.8 0.00 0.00 0.00 79 1021.0
20260507052403 12 263 0.0 3.2 0.00 0.00 0.00 78 1021.0
20260507051902 12 267 0.0 8.0 0.00 0.00 0.00 78 1021.0
20260507051403 12 305 0.0 8.0 0.00 0.00 0.00 78 1021.0
20260507050902 12 201 0.0 4.8 0.00 0.00 0.00 77 1021.0
20260507050402 12 169 0.0 3.2 0.00 0.00 0.00 77 1021.0
20260507045902 12 194 0.0 4.8 0.00 0.00 0.00 77 1021.1
20260507044902 13 277 0.0 3.2 0.00 0.00 0.00 76 1021.1
20260507044403 13 286 0.0 4.8 0.00 0.00 0.00 76 1021.1
20260507043903 13 139 1.6 9.7 0.00 0.00 0.00 75 1021.1
20260507043402 13 238 3.2 9.7 0.00 0.00 0.00 75 1021.1
20260507042903 13 143 0.0 8.0 0.00 0.00 0.00 75 1021.0
20260507042402 13 256 0.0 4.8 0.00 0.00 0.00 75 1021.0
20260507041903 13 246 1.6 8.0 0.00 0.00 0.00 75 1021.1
20260507041402 13 217 1.6 8.0 0.00 0.00 0.00 75 1021.1
20260507040903 13 342 1.6 11.3 0.00 0.00 0.00 76 1021.0
20260507040403 13 319 1.6 14.5 0.00 0.00 0.00 75 1021.0
20260507035903 13 238 4.8 14.5 0.00 0.00 0.00 75 1020.9
20260507035403 13 281 1.6 19.3 0.00 0.00 0.00 75 1020.8
20260507034403 13 61 4.8 11.3 0.00 0.00 0.00 75 1020.7
20260507033903 13 247 0.0 4.8 0.00 0.00 0.00 76 1020.5
20260507033403 14 211 0.0 4.8 0.00 0.00 0.00 75 1020.4
20260507032903 14 281 1.6 4.8 0.00 0.00 0.00 75 1020.3
20260507032403 14 234 0.0 11.3 0.00 0.00 0.00 75 1020.3
20260507031903 14 259 1.6 11.3 0.00 0.00 0.00 75 1020.3
20260507031403 14 238 1.6 11.3 0.00 0.00 0.00 75 1020.2
20260507030903 15 283 1.6 8.0 0.00 0.00 0.00 75 1020.1
20260507030403 15 275 1.6 8.0 0.00 0.00 0.00 74 1020.1
20260507025903 15 215 0.0 3.2 0.00 0.00 0.00 74 1020.0
20260507024902 15 236 0.0 8.0 0.00 0.00 0.00 74 1019.8
20260507024402 15 89 0.0 8.0 0.00 0.00 0.00 73 1019.8
20260507023903 15 255 0.0 4.8 0.00 0.00 0.00 75 1019.8
20260507022903 16 207 0.0 3.2 0.00 0.00 0.00 74 1019.8
20260507022403 16 245 0.0 3.2 0.00 0.00 0.00 73 1019.7
20260507021903 16 247 0.0 0.0 0.00 0.00 0.00 72 1019.8
20260507021404 16 246 0.0 8.0 0.00 0.00 0.00 73 1019.7
20260507020903 16 311 0.0 8.0 0.00 0.00 0.00 72 1019.7
20260507015903 16 163 3.2 11.3 0.00 0.00 0.00 72 1019.9
20260507015402 16 355 0.0 8.0 0.00 0.00 0.00 73 1019.9
20260507014402 16 248 0.0 11.3 0.00 0.00 0.00 72 1019.8
20260507013903 16 254 1.6 11.3 0.00 0.00 0.00 71 1019.8
20260507012902 17 220 1.6 8.0 0.00 0.00 0.00 72 1020.0
20260507012403 17 243 1.6 8.0 0.00 0.00 0.00 70 1020.0
20260507011903 17 278 3.2 11.3 0.00 0.00 0.00 71 1019.9
20260507011402 17 224 4.8 11.3 0.00 0.00 0.00 69 1019.9
20260507005903 17 275 0.0 8.0 0.00 0.00 0.00 69 1019.9
20260507005402 17 218 1.6 8.0 0.00 0.00 0.00 68 1019.9
20260507004903 17 280 1.6 8.0 0.00 0.00 0.00 68 1019.8
20260507004403 18 238 0.0 4.8 0.00 0.00 0.00 69 1019.8
20260507003403 18 300 1.6 4.8 0.00 0.00 0.00 68 1019.8
20260507002902 18 256 0.0 8.0 0.00 0.00 0.00 68 1019.7
20260507002402 18 236 1.6 8.0 0.00 0.00 0.00 70 1019.7
20260507001403 18 208 3.2 9.7 0.00 0.00 0.00 70 1019.7
20260507000903 18 236 1.6 8.0 0.00 0.00 0.00 68 1019.8
20260507000405 18 74 0.0 3.2 0.00 0.00 0.00 70 1019.8
20260506235902 18 38 0.0 3.2 0.00 0.00 0.00 70 1019.7
20260506235402 18 272 1.6 3.2 0.00 0.00 0.00 71 1019.7
20260506234403 18 140 0.0 4.8 0.00 0.00 0.00 69 1019.7
20260506233903 18 254 0.0 4.8 0.00 0.00 0.00 70 1019.8
20260506233402 18 222 1.6 4.8 0.00 0.00 0.00 71 1019.8
20260506232904 18 64 1.6 3.2 0.00 0.00 0.00 70 1019.8
20260506231903 18 241 1.6 8.0 0.00 0.00 0.00 70 1019.8
20260506231402 18 284 3.2 8.0 0.00 0.00 0.00 70 1019.9
20260506230902 18 38 0.0 4.8 0.00 0.00 0.00 70 1019.9
20260506230402 18 251 0.0 4.8 0.00 0.00 0.00 69 1019.9
20260506225902 18 224 1.6 4.8 0.00 0.00 0.00 69 1020.0
20260506225403 18 252 1.6 4.8 0.00 0.00 0.00 67 1020.0
20260506224903 18 89 0.0 3.2 0.00 0.00 0.00 69 1020.1
20260506223902 18 11 0.0 3.2 0.00 0.00 0.00 70 1020.2
20260506223402 18 248 0.0 3.2 0.00 0.00 0.00 72 1020.2
20260506222903 18 220 1.6 3.2 0.00 0.00 0.00 70 1020.3
20260506222403 18 41 0.0 3.2 0.00 0.00 0.00 70 1020.3
20260506221903 18 41 0.0 3.2 0.00 0.00 0.00 69 1020.3
20260506221403 18 212 0.0 3.2 0.00 0.00 0.00 71 1020.3
20260506220902 18 288 0.0 4.8 0.00 0.00 0.00 72 1020.3
20260506220403 18 53 1.6 8.0 0.00 0.00 0.00 69 1020.4
20260506215902 18 34 3.2 8.0 0.00 0.00 0.00 69 1020.3
20260506215403 18 167 0.0 4.8 0.00 0.00 0.00 69 1020.4
20260506214902 18 19 0.0 4.8 0.00 0.00 0.00 69 1020.4
20260506214403 18 321 1.6 4.8 0.00 0.00 0.00 69 1020.3
20260506213903 18 49 0.0 4.8 0.00 0.00 0.00 69 1020.3
20260506213403 18 265 3.2 4.8 0.00 0.00 0.00 68 1020.4
20260506212903 18 129 1.6 4.8 0.00 0.00 0.00 69 1020.4
20260506212402 18 27 1.6 3.2 0.00 0.00 0.00 71 1020.5
20260506211902 18 9 0.0 3.2 0.00 0.00 0.00 72 1020.7
20260506210903 17 159 0.0 4.8 0.00 0.00 0.00 71 1020.7
20260506210403 17 35 1.6 4.8 0.00 0.00 0.00 73 1020.7
20260506205903 17 22 1.6 4.8 0.00 0.00 0.00 71 1020.7
20260506204902 17 286 0.0 3.2 0.00 0.00 0.00 71 1020.8
20260506204403 17 161 0.0 4.8 0.00 0.00 0.00 73 1020.7
20260506203903 17 272 0.0 4.8 0.00 0.00 0.00 73 1020.8
20260506203402 17 14 1.6 4.8 0.00 0.00 0.00 75 1020.8
20260506202903 17 264 1.6 4.8 0.00 0.00 0.00 74 1020.6
20260506202403 17 349 0.0 4.8 0.00 0.00 0.00 74 1020.7
20260506201903 17 170 0.0 3.2 0.00 0.00 0.00 73 1020.7
20260506201403 17 19 1.6 3.2 0.00 0.00 0.00 74 1020.7
20260506200902 16 300 0.0 3.2 0.00 0.00 0.00 74 1020.7
20260506200402 16 259 0.0 3.2 0.00 0.00 0.00 73 1020.8
20260506195903 16 276 0.0 8.0 0.00 0.00 0.00 72 1020.9
20260506195402 17 271 1.6 8.0 0.00 0.00 0.00 73 1020.9
20260506193402 17 257 1.6 4.8 0.00 0.00 0.00 73 1021.1
20260506192902 17 276 1.6 4.8 0.00 0.00 0.00 73 1021.1
20260506191903 16 276 1.6 8.0 0.00 0.00 0.00 75 1021.0
20260506191403 16 196 4.8 8.0 0.00 0.00 0.00 74 1021.0
20260506190403 16 348 0.0 4.8 0.00 0.00 0.00 76 1021.0
20260506185403 16 15 0.0 9.7 0.00 0.00 0.00 76 1020.9
20260506184403 16 261 0.0 9.7 0.00 0.00 0.00 77 1020.9
20260506183903 16 275 0.0 3.2 0.00 0.00 0.00 77 1020.9
20260506183403 16 296 1.6 3.2 0.00 0.00 0.00 78 1020.9
20260506182903 16 287 0.0 3.2 0.00 0.00 0.00 76 1020.8
20260506182403 16 225 1.6 3.2 0.00 0.00 0.00 78 1020.7
20260506181903 16 18 0.0 3.2 0.00 0.00 0.00 78 1020.9
20260506181403 15 234 0.0 3.2 0.00 0.00 0.00 78 1020.8
20260506180403 15 251 0.0 8.0 0.00 0.00 0.00 78 1020.7
20260506175903 15 282 0.0 8.0 0.00 0.00 0.00 79 1020.7
20260506175403 15 205 0.0 3.2 0.00 0.00 0.00 79 1020.8
20260506174903 15 203 1.6 4.8 0.00 0.00 0.00 78 1020.8
20260506173403 15 218 1.6 3.2 0.00 0.00 0.00 78 1020.7
20260506172903 15 248 0.0 3.2 0.00 0.00 0.00 80 1020.6
20260506172402 15 238 0.0 3.2 0.00 0.00 0.00 79 1020.5
20260506171904 15 306 1.6 4.8 0.00 0.00 0.00 79 1020.6
20260506171403 14 54 0.0 8.0 0.00 0.00 0.00 81 1020.5
20260506170403 14 30 1.6 8.0 0.00 0.00 0.00 80 1020.6
20260506165903 14 287 0.0 3.2 0.00 0.00 0.00 81 1020.6
20260506165402 14 150 0.0 3.2 0.00 0.00 0.00 80 1020.6
20260506164403 14 285 0.0 4.8 0.00 0.00 0.00 81 1020.6
20260506163402 14 242 0.0 3.2 0.00 0.00 0.00 82 1020.5
20260506162903 14 259 0.0 4.8 0.00 0.00 0.00 82 1020.6
20260506162404 14 194 1.6 4.8 0.00 0.00 0.00 82 1020.6
20260506161903 14 270 0.0 3.2 0.00 0.00 0.00 83 1020.4
20260506161402 14 318 1.6 3.2 0.00 0.00 0.00 82 1020.4
20260506160403 14 254 0.0 3.2 0.00 0.00 0.00 84 1020.2
20260506155902 13 258 0.0 3.2 0.00 0.00 0.00 83 1019.9
20260506154903 13 70 1.6 4.8 0.00 0.00 0.00 84 1019.8
20260506154403 13 97 1.6 4.8 0.00 0.00 0.00 84 1020.0
20260506153902 13 42 0.0 3.2 0.00 0.00 0.00 84 1020.1
20260506153402 13 99 0.0 3.2 0.00 0.00 0.00 84 1020.1
20260506152902 12 79 0.0 3.2 0.00 0.00 0.00 85 1020.4
20260506152403 12 21 0.0 0.0 0.00 0.00 0.00 86 1020.7
20260506151902 12 196 0.0 4.8 0.00 0.00 0.00 85 1020.6
20260506151403 12 314 0.0 4.8 0.00 0.00 0.00 87 1020.7
20260506150403 12 323 0.0 3.2 0.00 0.00 0.00 87 1020.6
20260506145903 12 177 0.0 3.2 0.00 0.00 0.00 87 1020.6
20260506145403 12 349 1.6 3.2 0.00 0.00 0.00 87 1020.4
20260506144904 12 282 0.0 3.2 0.00 0.00 0.00 87 1020.3
20260506144403 12 286 0.0 8.0 0.00 0.00 0.00 86 1020.3
20260506143903 12 261 3.2 8.0 0.00 0.00 0.00 86 1020.4
20260506143403 12 257 0.0 3.2 0.00 0.00 0.00 87 1020.3
20260506142903 12 246 0.0 3.2 0.00 0.00 0.00 87 1020.2
20260506142403 12 253 0.0 3.2 0.00 0.00 0.00 87 1020.0
20260506141902 12 242 0.0 1.6 0.00 0.00 0.00 87 1019.9
20260506140903 12 245 0.0 3.2 0.00 0.00 0.00 87 1019.8
20260506140403 12 241 0.0 3.2 0.00 0.00 0.00 87 1019.9
20260506135903 12 243 0.0 3.2 0.00 0.00 0.00 87 1019.9
20260506134903 12 283 0.0 3.2 0.00 0.00 0.00 87 1019.8
20260506134402 12 280 0.0 3.2 0.00 0.00 0.00 87 1019.7
20260506133902 12 274 0.0 3.2 0.00 0.00 0.00 87 1019.7
20260506132902 12 245 1.6 4.8 0.00 0.00 0.00 88 1019.7
20260506131903 12 257 0.0 0.0 0.00 0.00 0.00 88 1019.4
20260506130403 12 257 0.0 0.0 0.00 0.00 0.00 88 1019.2
20260506125903 12 257 0.0 0.0 0.00 0.00 0.00 87 1019.2
20260506125403 12 257 0.0 0.0 0.00 0.00 0.00 88 1019.1
20260506124903 12 257 0.0 0.0 0.00 0.00 0.00 88 1019.1
20260506123403 12 257 0.0 0.0 0.00 0.00 0.00 87 1019.1
20260506122902 12 257 0.0 0.0 0.00 0.00 0.00 87 1019.0
20260506121902 12 257 0.0 0.0 0.00 0.00 0.00 87 1019.0
20260506121403 12 257 0.0 0.0 0.00 0.00 0.00 88 1019.1
20260506120902 12 257 0.0 0.0 0.00 0.00 0.00 87 1019.1
20260506120402 12 257 0.0 0.0 0.00 0.00 0.00 87 1019.0
20260506115903 12 272 0.0 0.0 0.00 0.00 0.00 87 1019.0
20260506114903 12 285 0.0 0.0 0.00 0.00 0.00 87 1018.9
20260506114402 12 285 0.0 0.0 0.00 0.00 0.00 87 1018.7
20260506113903 12 285 0.0 0.0 0.00 0.00 0.00 87 1018.8
20260506113403 12 293 0.0 0.0 0.00 0.00 0.00 87 1018.8
20260506112903 12 340 0.0 0.0 0.00 0.00 0.00 87 1018.8
20260506111903 12 113 0.0 4.8 0.00 0.00 0.00 87 1018.6
20260506110903 12 210 0.0 0.0 0.00 0.00 0.00 87 1018.6
20260506110403 12 210 0.0 0.0 0.00 0.00 0.00 87 1018.4
20260506105903 12 210 0.0 0.0 0.00 0.00 0.00 87 1018.4
20260506105402 12 210 0.0 0.0 0.00 0.00 0.00 87 1018.3
20260506104402 12 210 0.0 0.0 0.00 0.00 0.00 87 1018.2
20260506103903 12 210 0.0 0.0 0.00 0.00 0.00 86 1018.1
20260506103403 12 210 0.0 0.0 0.00 0.00 0.00 87 1018.0
20260506102903 12 210 0.0 0.0 0.00 0.00 0.00 86 1018.0
20260506102403 12 210 0.0 0.0 0.00 0.00 0.00 86 1018.0
20260506101902 12 210 0.0 0.0 0.00 0.00 0.00 86 1017.9
20260506101403 12 210 0.0 0.0 0.00 0.00 0.00 86 1017.8
20260506100903 12 191 0.0 0.0 0.00 0.00 0.00 86 1017.8
20260506100404 12 191 0.0 0.0 0.00 0.00 0.00 86 1017.9
20260506095902 12 275 0.0 0.0 0.00 0.00 0.00 86 1017.8